Theta_e
315 315 318 319 321 321 322 320 320 318 318 316 309 305 304 304 305 306 307 307 304 304 303 305 306 307 308 308 309 308 309 309 309 309 308 310 314 319 323 326 328 329 329 329
316 315 317 317 320 320 321 321 321 318 315 314 312 306 304 304 303 306 308 307 305 303 304 304 305 306 307 307 308 308 309 309 309 309 309 310 315 319 320 322 322 323 322 321
317 314 316 319 317 319 319 319 319 320 318 310 312 310 306 304 304 305 308 308 306 305 304 304 305 306 306 306 307 308 309 309 309 309 309 310 311 314 316 315 315 314 316 315
309 316 320 316 313 316 319 318 318 318 316 315 313 313 310 307 307 307 307 306 305 304 304 304 305 305 306 306 307 307 308 308 308 308 308 308 308 308 309 309 310 310 311 310
309 317 316 312 310 316 318 319 316 317 317 314 311 311 311 307 307 306 305 303 303 303 303 302 302 303 303 304 305 305 305 305 305 305 305 305 304 303 304 305 305 306 305 306
310 318 321 314 308 314 315 320 316 316 316 315 312 315 314 303 302 301 301 301 301 300 299 299 299 301 301 300 300 299 300 301 302 303 304 303 303 304 304 303 302 303 303 302
312 318 312 308 307 314 321 318 312 314 315 315 314 315 307 301 300 298 299 299 298 297 294 294 296 298 296 295 294 295 298 299 300 300 299 301 302 302 300 300 299 299 299 297
316 316 317 304 313 317 313 304 305 307 310 314 313 305 302 299 296 295 295 295 294 291 289 291 293 295 292 290 292 295 296 297 297 297 298 299 299 298 297 296 295 294 294 293
315 314 304 307 303 304 302 303 305 304 305 310 305 300 298 296 294 292 291 290 290 288 286 287 289 290 288 288 292 294 295 295 294 295 295 295 295 294 293 292 291 291 290 289
309 302 299 298 299 298 300 302 299 299 300 303 300 297 294 292 290 289 287 286 286 285 283 282 285 286 286 289 291 292 292 291 291 291 291 292 292 291 291 290 289 289 288 288
303 296 297 298 292 292 296 296 296 294 295 296 296 294 292 289 287 286 284 283 283 282 280 280 284 285 287 288 288 289 289 288 288 288 288 288 288 288 288 287 287 287 287 287
295 284 286 294 289 289 291 291 291 292 292 290 292 290 288 286 284 283 281 280 279 279 279 279 281 282 284 286 287 288 287 286 286 286 286 286 285 285 285 285 285 286 286 286
279 278 279 284 286 285 287 286 285 287 288 288 286 285 284 282 279 278 277 277 276 275 276 277 279 280 281 283 285 285 285 285 285 285 284 284 284 283 283 284 284 285 285 284
273 275 286 282 281 280 284 283 281 280 279 280 280 279 278 277 275 274 272 273 274 273 273 275 277 278 279 281 283 283 283 283 283 283 283 283 283 282 282 282 282 283 283 282
269 271 276 278 276 275 276 279 278 278 277 276 275 275 275 272 270 269 271 272 272 271 271 273 275 275 277 279 280 281 282 281 281 282 281 281 281 281 281 281 281 281 282 282
267 272 271 273 273 272 271 272 275 274 274 273 272 271 269 268 267 268 269 271 269 265 268 270 271 272 275 277 278 279 279 279 280 281 281 281 280 280 280 280 280 280 280 280
266 268 268 269 271 270 269 268 269 270 270 270 270 269 268 268 267 266 266 267 268 267 268 269 269 272 274 276 277 277 278 278 278 279 279 279 279 279 279 279 279 279 279 279
264 265 266 266 267 269 269 267 267 268 268 269 269 269 269 268 267 266 267 267 268 268 268 268 269 271 273 274 274 275 276 277 278 278 277 278 277 277 277 277 277 277 277 277
263 264 264 264 264 265 265 266 266 267 267 268 268 267 266 266 266 266 267 268 267 267 267 268 268 270 271 272 273 274 274 274 274 274 274 274 274 274 275 275 274 274 274 275
262 263 263 264 263 263 263 264 265 265 266 268 268 267 266 266 267 267 267 264 263 264 266 267 268 269 269 270 271 271 271 272 271 271 271 271 271 271 271 271 271 271 271 271
261 262 262 263 263 263 263 263 264 264 265 266 266 266 265 266 266 267 266 265 265 266 266 267 267 268 268 268 269 269 269 269 269 269 269 268 269 268 268 268 268 269 269 269
260 261 262 262 263 263 262 263 263 264 264 264 265 265 266 265 266 266 265 264 265 265 266 266 266 267 266 266 267 267 267 267 267 267 267 267 267 267 267 267 267 267 267 267
260 261 261 262 262 262 262 263 263 263 263 263 263 263 263 264 264 265 265 265 265 265 265 266 266 265 265 266 266 266 266 266 266 266 266 266 266 266 266 266 266 266 266 266
260 261 261 262 262 262 261 261 262 262 263 263 263 263 263 263 264 264 264 264 264 264 265 265 265 265 265 265 265 265 265 265 265 265 265 265 265 265 265 265 264 265 265 265
260 260 260 261 261 260 260 260 261 261 262 262 262 262 262 262 262 263 263 263 264 264 264 265 265 264 264 264 264 264 264 264 264 264 264 264 264 264 264 264 264 264 264 264
259 259 260 260 260 259 259 259 259 260 260 260 262 262 262 262 262 262 263 263 263 263 263 264 264 264 263 263 263 263 263 263 263 263 263 263 263 263 263 263 263 263 263 263
259 259 259 260 260 259 259 259 258 259 259 259 259 262 261 262 262 262 262 262 262 262 263 263 263 263 262 262 262 262 262 262 262 262 262 262 262 262 262 262 262 262 262 262
Wind_Speed
14 8 3 11 19 25 24 34 17 26 21 16 12 13 11 11 8 7 7 6 5 3 3 3 3 4 5 6 7 8 11 13 16 16 18 20 21 24 27 29 31 33 36 37
16 13 12 12 16 16 26 29 25 27 18 20 12 6 8 9 9 9 8 7 7 6 5 3 5 7 9 10 9 8 9 10 9 9 10 12 12 11 13 16 19 18 17 19
19 11 14 14 28 24 24 27 30 27 38 6 10 8 9 12 14 13 9 8 7 6 5 5 5 7 9 8 8 8 7 7 7 7 7 7 8 9 10 10 11 12 14 16
8 9 17 23 15 29 31 31 29 29 17 19 15 12 6 8 10 9 8 6 5 4 4 2 3 4 5 5 5 5 5 5 5 6 6 5 6 6 7 7 8 10 12 14
5 12 4 7 9 26 22 32 29 29 31 15 5 5 7 8 4 7 7 6 9 9 6 4 1 1 1 1 2 2 1 2 3 4 5 4 2 4 4 4 6 8 11 13
9 12 9 13 7 18 11 20 32 30 26 24 8 8 16 7 7 7 9 13 14 11 8 5 3 2 4 5 5 6 3 1 2 3 1 0 1 2 4 6 8 9 10 11
16 12 8 5 7 22 15 14 11 25 23 17 17 25 8 10 6 7 8 12 12 12 11 8 7 7 11 9 11 7 5 3 3 3 2 1 2 3 4 5 5 6 7 8
9 7 14 8 20 22 11 1 3 2 14 21 27 11 13 10 9 8 8 12 13 15 13 12 12 11 13 14 10 7 6 6 6 6 4 2 2 4 4 4 5 6 7 8
11 7 2 8 6 3 0 2 2 3 6 16 10 8 10 11 10 7 12 12 14 17 17 17 15 13 14 11 9 9 8 10 9 7 5 4 4 4 5 5 5 7 7 8
3 2 6 11 8 14 7 3 2 2 4 4 10 14 14 11 9 9 11 13 17 18 18 18 17 16 16 12 10 9 12 12 11 9 7 5 4 4 3 3 3 4 6 6
1 5 3 9 16 14 10 9 7 8 7 9 16 13 13 12 9 10 13 15 17 17 17 18 17 17 14 11 9 12 13 12 12 11 10 8 7 6 5 4 3 3 4 4
3 8 7 4 14 16 10 10 10 8 9 10 10 13 13 11 11 14 14 18 19 20 21 15 15 16 16 15 12 12 15 14 13 12 10 9 8 6 7 8 7 5 5 6
7 16 14 13 6 16 10 12 12 13 11 12 12 16 15 8 11 17 18 19 21 19 16 15 17 19 18 17 14 16 16 14 13 12 11 10 9 9 9 7 8 9 7 7
14 18 1 12 7 12 11 13 15 18 18 14 16 19 19 16 18 17 17 19 18 18 18 19 21 22 18 16 15 15 14 13 11 10 9 8 8 8 7 8 8 7 7 10
19 16 10 8 10 13 18 11 11 12 10 12 16 16 16 17 17 17 18 18 20 23 24 23 23 21 16 14 13 14 14 13 10 10 9 9 8 7 8 8 8 8 9 9
19 6 13 12 10 11 11 13 11 10 9 9 12 17 18 22 23 19 16 13 19 22 22 23 22 18 15 13 13 14 14 12 11 10 9 10 10 9 9 10 9 10 10 11
9 10 14 12 12 11 11 7 7 7 9 10 12 17 21 22 24 24 23 23 24 24 21 21 19 15 14 14 14 14 12 12 11 11 12 10 9 9 7 7 8 8 9 9
10 9 8 7 9 8 7 8 9 11 9 9 14 18 18 16 13 16 16 16 20 23 23 20 17 13 13 14 13 12 11 11 10 11 9 9 9 8 8 8 8 8 8 9
13 10 11 10 11 9 8 9 10 12 15 14 16 16 17 17 16 16 14 16 15 16 18 17 15 12 13 12 11 10 8 8 8 7 7 6 5 6 6 7 7 8 9 10
13 14 14 12 14 14 11 14 13 15 16 16 15 15 15 15 16 18 18 19 16 10 11 12 12 13 13 12 11 11 9 9 9 7 7 7 7 7 7 7 8 8 9 10
13 14 13 13 12 14 15 14 14 16 17 18 18 15 15 14 15 10 12 11 13 11 11 11 12 12 13 12 12 11 10 9 9 9 9 9 9 8 9 9 10 11 12 13
11 12 13 13 12 12 15 16 16 16 17 17 17 15 13 13 10 7 9 13 12 12 12 12 12 11 12 11 11 11 10 10 10 10 10 10 11 12 12 13 13 13 14 15
12 13 12 13 12 10 13 16 16 15 15 15 14 14 12 9 7 6 4 13 13 13 12 12 11 11 12 12 13 13 12 13 13 13 13 13 14 15 16 16 16 17 17 17
12 13 12 10 9 12 11 14 13 12 12 11 11 11 11 10 7 4 13 13 14 14 14 15 14 15 16 17 17 17 17 17 17 17 18 18 18 18 19 20 21 20 20 20
12 10 10 10 8 8 10 12 9 11 12 12 10 10 9 9 7 13 14 15 15 16 17 17 17 18 19 19 20 21 21 22 22 22 23 23 23 24 24 24 25 25 25 24
11 10 9 7 5 9 10 11 11 11 13 15 13 12 12 12 13 14 16 17 18 19 20 20 21 21 21 22 22 23 24 24 24 25 25 26 27 27 28 28 28 28 28 28
9 7 8 8 6 10 11 11 13 14 13 14 17 16 18 18 18 19 20 21 22 23 24 24 25 25 25 26 26 26 27 27 27 27 28 29 29 30 30 30 30 29 29 29
Wind_Direction
237 260 313 230 219 215 209 224 218 237 233 223 211 203 205 205 203 209 221 227 225 218 232 249 277 289 271 275 279 270 255 251 253 255 253 252 252 253 253 253 254 255 255 253
238 238 228 237 241 234 222 228 231 247 251 221 245 167 193 208 204 217 217 219 221 217 214 230 257 277 286 289 284 277 261 259 261 258 252 248 246 246 246 246 245 248 249 258
257 224 235 237 230 220 231 235 219 229 234 141 221 222 202 205 205 210 206 202 184 179 168 197 257 290 290 281 276 269 251 240 239 245 252 249 245 241 240 248 252 256 259 265
282 245 220 241 222 217 217 223 224 236 246 218 222 233 209 203 187 204 194 181 167 163 185 215 266 280 275 266 249 228 218 228 242 243 240 247 249 245 250 258 267 271 271 272
246 260 291 264 221 197 198 231 224 229 238 223 189 117 250 210 181 163 163 170 175 170 158 147 144 311 240 94 109 141 179 241 244 248 258 256 300 327 314 305 295 280 274 282
227 245 235 247 178 189 183 252 229 227 236 230 147 214 232 150 140 137 148 155 131 125 120 113 59 89 111 83 81 61 30 325 252 237 232 74 277 281 285 287 297 296 294 293
210 240 278 238 187 137 164 241 195 207 219 205 201 220 155 141 134 131 121 112 120 112 94 74 79 99 86 73 48 30 36 38 50 56 69 279 289 298 317 321 317 315 315 309
207 188 247 176 148 164 204 2 95 163 215 209 217 149 143 137 134 124 109 110 121 103 86 76 79 92 76 56 38 45 61 76 80 74 61 19 345 348 342 334 334 330 326 325
206 201 271 180 351 24 352 164 188 224 247 210 158 140 137 132 117 104 108 109 119 103 88 75 77 80 76 54 60 65 72 70 72 85 82 72 49 30 16 3 348 335 328 332
172 19 341 28 359 4 339 45 36 35 81 130 127 130 114 108 107 105 100 103 111 100 81 69 68 68 63 60 70 79 81 77 75 80 87 85 66 66 58 26 355 342 331 331
48 11 318 51 13 336 338 360 32 51 57 102 116 104 115 113 110 104 100 99 101 95 90 76 69 69 72 79 83 86 87 81 76 75 74 69 69 58 36 24 348 347 343 329
39 8 315 359 345 344 21 11 1 40 62 49 93 107 112 101 101 109 106 107 97 90 85 83 85 78 76 77 81 83 79 69 66 65 65 64 54 44 45 33 27 9 4 2
318 318 303 293 10 8 28 25 19 43 51 88 80 98 94 98 93 96 95 96 93 101 105 103 91 76 72 73 73 72 71 65 61 60 55 50 46 47 35 37 42 49 35 23
351 338 75 18 347 358 32 46 51 54 49 53 80 85 96 93 84 79 77 97 105 103 88 78 71 63 63 73 83 78 72 71 72 71 69 71 62 48 35 32 25 24 29 16
342 333 340 348 3 16 34 33 53 54 48 50 65 82 92 93 85 84 98 104 100 85 72 67 62 53 55 62 75 91 98 84 75 78 75 67 60 50 42 35 26 9 9 21
319 319 6 18 14 22 43 32 52 49 45 49 72 75 85 92 93 91 88 87 83 61 60 60 57 50 53 61 63 69 69 70 77 68 63 60 53 46 36 30 20 12 10 3
348 359 357 359 1 15 41 45 46 48 48 56 74 91 94 92 87 81 81 80 77 71 62 56 47 50 55 58 59 59 56 58 57 62 57 42 34 37 27 8 12 7 6 4
345 344 346 337 346 355 22 37 42 49 49 69 84 86 81 79 86 86 89 84 76 67 58 52 48 49 53 56 54 51 47 47 46 48 46 45 33 20 14 7 357 348 338 336
352 348 357 13 11 7 359 23 44 61 61 64 75 73 77 80 86 87 88 80 67 59 40 43 42 42 46 50 46 46 42 42 41 38 34 30 19 10 3 358 352 343 335 330
357 4 10 17 29 27 14 25 40 55 71 78 84 78 71 70 74 76 73 68 52 41 30 30 27 28 29 29 27 25 21 17 15 10 4 4 359 350 341 334 330 324 322 322
358 2 6 8 17 32 36 44 45 45 55 70 67 62 68 67 68 76 66 58 32 27 22 15 10 9 8 8 5 1 357 357 354 351 349 345 338 331 322 315 311 310 308 304
353 359 1 6 10 23 37 43 49 53 53 56 60 63 64 56 54 59 56 36 11 7 8 1 358 356 353 353 348 344 340 337 334 328 324 322 319 314 311 309 307 304 301 300
357 360 2 11 11 15 33 42 41 46 46 44 45 42 40 35 32 50 26 357 357 354 351 348 347 345 337 336 334 330 326 324 322 318 315 311 308 305 301 299 298 297 296 295
1 9 7 15 28 33 22 22 33 38 40 38 38 29 22 21 25 18 346 341 340 339 336 335 332 328 323 322 318 315 313 309 305 304 301 298 295 293 291 291 290 292 291 290
358 359 6 11 18 12 8 9 19 23 25 23 24 18 16 4 350 331 335 333 332 329 326 327 324 321 316 312 309 307 305 303 301 300 297 295 294 291 290 289 288 288 288 287
343 341 344 346 342 353 356 0 1 1 0 358 359 1 354 349 343 336 334 331 328 325 321 321 319 316 312 309 307 304 302 300 299 297 296 295 293 291 290 289 288 288 287 287
339 336 339 349 351 345 341 340 339 337 341 338 328 341 338 338 335 330 328 324 322 318 317 315 313 312 310 308 305 302 301 298 297 296 294 292 291 290 290 290 290 290 289 288